Regional Weather Roundup
Issued by NWS

Home | Current Version | Previous Version | Text Only | Print | Product List | Glossary On
Versions: 1 2 3 4 5 6 7 8 9 10 11 12 13 14 15 16 17 18 19 20 21 22 23 24 25 26 27 28 29 30 31 32 33 34 35 36 37 38 39 40 41 42 43 44 45 46 47 48 49 50
000
ASUS43 KLMK 240210
RWRKY
KENTUCKY REGIONAL WEATHER ROUNDUP
NATIONAL WEATHER SERVICE LOUISVILLE KY
1000 PM EDT TUE AUG 23 2016

NOTE "FAIR" INDICATES FEW OR NO CLOUDS BELOW 12,000 FEET
WITH NO SIGNIFICANT WEATHER AND/OR OBSTRUCTIONS TO VISIBILITY.

KYZ001>023-026-027-061>063-070>075-240300-
WESTERN AND SOUTH CENTRAL KENTUCKY

CITY           SKY/WX    TMP DP  RH WIND       PRES   REMARKS
PADUCAH        PTCLDY    73  71  93 SE5       30.14R
HENDERSON      MOCLDY    75  66  73 SE6       30.15S
OWENSBORO      PTCLDY    77  66  68 SE7       30.17S
HOPKINSVILLE   CLEAR     78  72  83 S5        30.17S
BOWLING GREEN  CLEAR     76  66  71 CALM      30.20R
GLASGOW        MOCLDY    72  67  86 CALM      30.21S
$$

KYZ024-025-028>034-038-045-046-053-240300-
NORTH CENTRAL KENTUCKY

CITY           SKY/WX    TMP DP  RH WIND       PRES   REMARKS
LOUISVILLE/SDF CLOUDY    77  62  59 SE3       30.20R
LOUISVILLE/LOU MOCLDY    78  62  57 E3        30.20S
FORT KNOX      CLOUDY    70  66  89 CALM      30.19S
$$

KYZ035>037-039>044-047>052-055>060-089>105-240300-
NORTHEAST KENTUCKY

CITY           SKY/WX    TMP DP  RH WIND       PRES   REMARKS
LEXINGTON      CLEAR     71  64  78 CALM      30.24R
COVINGTON      MOCLDY    70  62  76 CALM      30.23R
FRANKFORT      CLOUDY    69  63  81 CALM      30.22R
$$

KYZ054-064>069-076>088-106>120-240300-
SOUTHEAST KENTUCKY

CITY           SKY/WX    TMP DP  RH WIND       PRES   REMARKS
JACKSON        CLEAR     74  57  55 CALM      30.26S
LONDON         CLOUDY    71  62  73 CALM      30.25S
SOMERSET       CLEAR     70  68  94 CALM      30.25S
MIDDLESBORO    PTCLDY    69  65  89 CALM      30.27R
MONTICELLO     MOCLDY   N/A N/A N/A W10       30.25S
$$





USA.gov is the U.S. government's official web portal to all federal, state and local government web resources and services.